Year,Month,Day,Hour,Minute,Value (Times are PST for temperature in C)
2010,09,30,00,00,10.40
2010,09,30,00,01,10.40
2010,09,30,00,02,10.40
2010,09,30,00,03,10.40
2010,09,30,00,04,10.40
2010,09,30,00,05,10.40
2010,09,30,00,06,10.40
2010,09,30,00,07,10.40
2010,09,30,00,08,10.40
2010,09,30,00,09,10.40
2010,09,30,00,10,10.40
2010,09,30,00,11,10.40
2010,09,30,00,12,10.40
2010,09,30,00,13,10.40
2010,09,30,00,14,10.40
2010,09,30,00,15,10.40
2010,09,30,00,16,10.30
2010,09,30,00,17,10.30
2010,09,30,00,18,10.20
2010,09,30,00,19,10.20
2010,09,30,00,20,10.10
2010,09,30,00,21,10.10
2010,09,30,00,22,10.10
2010,09,30,00,23,10.10
2010,09,30,00,24,10.10
2010,09,30,00,25,10.10
2010,09,30,00,26,10.10
2010,09,30,00,27,10.10
2010,09,30,00,28,10.10
2010,09,30,00,29,10.10
2010,09,30,00,30,10.10
2010,09,30,00,31,10.10
2010,09,30,00,32,10.10
2010,09,30,00,33,10.20
2010,09,30,00,34,10.20
2010,09,30,00,35,10.20
2010,09,30,00,36,10.20
2010,09,30,00,37,10.30
2010,09,30,00,38,10.30
2010,09,30,00,39,10.30
2010,09,30,00,40,10.30
2010,09,30,00,41,10.40
2010,09,30,00,42,10.40
2010,09,30,00,43,10.40
2010,09,30,00,44,10.40
2010,09,30,00,45,10.30
2010,09,30,00,46,10.30
2010,09,30,00,47,10.30
2010,09,30,00,48,10.30
2010,09,30,00,49,10.40
2010,09,30,00,50,10.40
2010,09,30,00,51,10.40
2010,09,30,00,52,10.40
2010,09,30,00,53,10.40
2010,09,30,00,54,10.40
2010,09,30,00,55,10.40
2010,09,30,00,56,10.40
2010,09,30,00,57,10.40
2010,09,30,00,58,10.40
2010,09,30,00,59,10.30
2010,09,30,01,00,10.30
2010,09,30,01,01,10.30
2010,09,30,01,02,10.30
2010,09,30,01,03,10.20
2010,09,30,01,04,10.20
2010,09,30,01,05,10.20
2010,09,30,01,06,10.10
2010,09,30,01,07,10.10
2010,09,30,01,08,10.10
2010,09,30,01,09,10.10
2010,09,30,01,10,10.10
2010,09,30,01,11,10.10
2010,09,30,01,12,10.10
2010,09,30,01,13,10.10
2010,09,30,01,14,10.10
2010,09,30,01,15,10.10
2010,09,30,01,16,10.10
2010,09,30,01,17,10.10
2010,09,30,01,18,10.10
2010,09,30,01,19,10.10
2010,09,30,01,20,9.90
2010,09,30,01,21,9.90
2010,09,30,01,22,9.90
2010,09,30,01,23,9.90
2010,09,30,01,24,9.90
2010,09,30,01,25,9.90
2010,09,30,01,26,9.90
2010,09,30,01,27,9.90
2010,09,30,01,28,9.90
2010,09,30,01,29,9.90
2010,09,30,01,30,9.90
2010,09,30,01,31,9.90
2010,09,30,01,32,9.90
2010,09,30,01,33,9.90
2010,09,30,01,34,9.90
2010,09,30,01,35,9.90
2010,09,30,01,36,9.90
2010,09,30,01,37,9.90
2010,09,30,01,38,9.90
2010,09,30,01,39,9.90
2010,09,30,01,40,9.90
2010,09,30,01,41,9.90
2010,09,30,01,42,9.90
2010,09,30,01,43,9.80
2010,09,30,01,44,9.80
2010,09,30,01,45,9.80
2010,09,30,01,46,9.80
2010,09,30,01,47,9.80
2010,09,30,01,48,9.80
2010,09,30,01,49,9.70
2010,09,30,01,50,9.70
2010,09,30,01,51,9.70
2010,09,30,01,52,9.70
2010,09,30,01,53,9.70
2010,09,30,01,54,9.70
2010,09,30,01,55,9.70
2010,09,30,01,56,9.70
2010,09,30,01,57,9.70
2010,09,30,01,58,9.70
2010,09,30,01,59,9.60
2010,09,30,02,00,9.60
2010,09,30,02,01,9.60
2010,09,30,02,02,9.50
2010,09,30,02,03,9.50
2010,09,30,02,04,9.50
2010,09,30,02,05,9.50
2010,09,30,02,06,9.50
2010,09,30,02,07,9.50
2010,09,30,02,08,9.50
2010,09,30,02,09,9.40
2010,09,30,02,10,9.40
2010,09,30,02,11,9.40
2010,09,30,02,12,9.40
2010,09,30,02,13,9.40
2010,09,30,02,14,9.40
2010,09,30,02,15,9.40
2010,09,30,02,16,9.40
2010,09,30,02,17,9.30
2010,09,30,02,18,9.30
2010,09,30,02,19,9.30
2010,09,30,02,20,9.30
2010,09,30,02,21,9.30
2010,09,30,02,22,9.30
2010,09,30,02,23,9.30
2010,09,30,02,24,9.30
2010,09,30,02,25,9.30
2010,09,30,02,26,9.30
2010,09,30,02,27,9.30
2010,09,30,02,28,9.30
2010,09,30,02,29,9.30
2010,09,30,02,30,9.30
2010,09,30,02,31,9.30
2010,09,30,02,32,9.30
2010,09,30,02,33,9.30
2010,09,30,02,34,9.30
2010,09,30,02,35,9.30
2010,09,30,02,36,9.20
2010,09,30,02,37,9.20
2010,09,30,02,38,9.20
2010,09,30,02,39,9.20
2010,09,30,02,40,9.20
2010,09,30,02,41,9.10
2010,09,30,02,42,9.10
2010,09,30,02,43,9.10
2010,09,30,02,44,9.00
2010,09,30,02,45,9.00
2010,09,30,02,46,9.00
2010,09,30,02,47,8.90
2010,09,30,02,48,8.90
2010,09,30,02,49,8.90
2010,09,30,02,50,8.80
2010,09,30,02,51,8.80
2010,09,30,02,52,8.80
2010,09,30,02,53,8.80
2010,09,30,02,54,8.70
2010,09,30,02,55,8.70
2010,09,30,02,56,8.70
2010,09,30,02,57,8.70
2010,09,30,02,58,8.70
2010,09,30,02,59,8.70
2010,09,30,03,00,8.70
2010,09,30,03,01,8.70
2010,09,30,03,02,8.70
2010,09,30,03,03,8.70
2010,09,30,03,04,8.70
2010,09,30,03,05,8.70
2010,09,30,03,06,8.70
2010,09,30,03,07,8.60
2010,09,30,03,08,8.60
2010,09,30,03,09,8.70
2010,09,30,03,10,8.70
2010,09,30,03,11,8.70
2010,09,30,03,12,8.70
2010,09,30,03,13,8.70
2010,09,30,03,14,8.70
2010,09,30,03,15,8.70
2010,09,30,03,16,8.70
2010,09,30,03,17,8.80
2010,09,30,03,18,8.80
2010,09,30,03,19,8.70
2010,09,30,03,20,8.70
2010,09,30,03,21,8.70
2010,09,30,03,22,8.70
2010,09,30,03,23,8.70
2010,09,30,03,24,8.70
2010,09,30,03,25,8.80
2010,09,30,03,26,8.80
2010,09,30,03,27,8.80
2010,09,30,03,28,8.80
2010,09,30,03,29,8.80
2010,09,30,03,30,8.70
2010,09,30,03,31,8.70
2010,09,30,03,32,8.70
2010,09,30,03,33,8.70
2010,09,30,03,34,8.70
2010,09,30,03,35,8.70
2010,09,30,03,36,8.70
2010,09,30,03,37,8.70
2010,09,30,03,38,8.70
2010,09,30,03,39,8.70
2010,09,30,03,40,8.70
2010,09,30,03,41,8.70
2010,09,30,03,42,8.70
2010,09,30,03,43,8.70
2010,09,30,03,44,8.70
2010,09,30,03,45,8.70
2010,09,30,03,46,8.70
2010,09,30,03,47,8.70
2010,09,30,03,48,8.60
2010,09,30,03,49,8.60
2010,09,30,03,50,8.60
2010,09,30,03,51,8.60
2010,09,30,03,52,8.60
2010,09,30,03,53,8.60
2010,09,30,03,54,8.70
2010,09,30,03,55,8.70
2010,09,30,03,56,8.70
2010,09,30,03,57,8.70
2010,09,30,03,58,8.70
2010,09,30,03,59,8.70
2010,09,30,04,00,8.70
2010,09,30,04,01,8.70
2010,09,30,04,02,8.70
2010,09,30,04,03,8.70
2010,09,30,04,04,8.70
2010,09,30,04,05,8.70
2010,09,30,04,06,8.70
2010,09,30,04,07,8.70
2010,09,30,04,08,8.70
2010,09,30,04,09,8.70
2010,09,30,04,10,8.70
2010,09,30,04,11,8.70
2010,09,30,04,12,8.70
2010,09,30,04,13,8.60
2010,09,30,04,14,8.60
2010,09,30,04,15,8.50
2010,09,30,04,16,8.50
2010,09,30,04,17,8.50
2010,09,30,04,18,8.50
2010,09,30,04,19,8.40
2010,09,30,04,20,8.40
2010,09,30,04,21,8.40
2010,09,30,04,22,8.40
2010,09,30,04,23,8.40
2010,09,30,04,24,8.40
2010,09,30,04,25,8.40
2010,09,30,04,26,8.40
2010,09,30,04,27,8.40
2010,09,30,04,28,8.40
2010,09,30,04,29,8.40
2010,09,30,04,30,8.40
2010,09,30,04,31,8.30
2010,09,30,04,32,8.30
2010,09,30,04,33,8.20
2010,09,30,04,34,8.20
2010,09,30,04,35,8.20
2010,09,30,04,36,8.20
2010,09,30,04,37,8.20
2010,09,30,04,38,8.20
2010,09,30,04,39,8.20
2010,09,30,04,40,8.20
2010,09,30,04,41,8.20
2010,09,30,04,42,8.10
2010,09,30,04,43,8.10
2010,09,30,04,44,8.10
2010,09,30,04,45,8.00
2010,09,30,04,46,8.00
2010,09,30,04,47,8.00
2010,09,30,04,48,7.90
2010,09,30,04,49,7.90
2010,09,30,04,50,7.90
2010,09,30,04,51,7.90
2010,09,30,04,52,7.90
2010,09,30,04,53,7.90
2010,09,30,04,54,7.90
2010,09,30,04,55,7.90
2010,09,30,04,56,7.90
2010,09,30,04,57,8.00
2010,09,30,04,58,8.00
2010,09,30,04,59,8.00
2010,09,30,05,00,8.00
2010,09,30,05,01,8.00
2010,09,30,05,02,8.00
2010,09,30,05,03,8.00
2010,09,30,05,04,8.00
2010,09,30,05,05,8.00
2010,09,30,05,06,8.00
2010,09,30,05,07,7.90
2010,09,30,05,08,7.90
2010,09,30,05,09,7.90
2010,09,30,05,10,7.90
2010,09,30,05,11,7.90
2010,09,30,05,12,7.90
2010,09,30,05,13,7.90
2010,09,30,05,14,7.90
2010,09,30,05,15,7.90
2010,09,30,05,16,7.90
2010,09,30,05,17,7.90
2010,09,30,05,18,7.80
2010,09,30,05,19,7.80
2010,09,30,05,20,7.80
2010,09,30,05,21,7.80
2010,09,30,05,22,7.80
2010,09,30,05,23,7.80
2010,09,30,05,24,7.80
2010,09,30,05,25,7.80
2010,09,30,05,26,7.80
2010,09,30,05,27,7.80
2010,09,30,05,28,7.80
2010,09,30,05,29,7.80
2010,09,30,05,30,7.90
2010,09,30,05,31,7.90
2010,09,30,05,32,7.90
2010,09,30,05,33,7.90
2010,09,30,05,34,7.90
2010,09,30,05,35,7.90
2010,09,30,05,36,7.80
2010,09,30,05,37,7.80
2010,09,30,05,38,7.80
2010,09,30,05,39,7.80
2010,09,30,05,40,7.80
2010,09,30,05,41,7.80
2010,09,30,05,42,7.70
2010,09,30,05,43,7.70
2010,09,30,05,44,7.70
2010,09,30,05,45,7.80
2010,09,30,05,46,7.80
2010,09,30,05,47,7.80
2010,09,30,05,48,7.80
2010,09,30,05,49,7.80
2010,09,30,05,50,7.90
2010,09,30,05,51,7.90
2010,09,30,05,52,7.90
2010,09,30,05,53,7.90
2010,09,30,05,54,7.90
2010,09,30,05,55,7.90
2010,09,30,05,56,7.90
2010,09,30,05,57,7.90
2010,09,30,05,58,7.90
2010,09,30,05,59,8.00
2010,09,30,06,00,8.00
2010,09,30,06,01,8.00
2010,09,30,06,02,7.90
2010,09,30,06,03,8.10
2010,09,30,06,04,8.20
2010,09,30,06,05,8.20
2010,09,30,06,06,8.10
2010,09,30,06,07,8.00
2010,09,30,06,08,7.90
2010,09,30,06,09,7.80
2010,09,30,06,10,7.80
2010,09,30,06,11,7.90
2010,09,30,06,12,8.00
2010,09,30,06,13,8.10
2010,09,30,06,14,8.10
2010,09,30,06,15,8.00
2010,09,30,06,16,8.00
2010,09,30,06,17,8.00
2010,09,30,06,18,8.10
2010,09,30,06,19,8.20
2010,09,30,06,20,8.20
2010,09,30,06,21,8.10
2010,09,30,06,22,8.10
2010,09,30,06,23,8.10
2010,09,30,06,24,8.00
2010,09,30,06,25,8.00
2010,09,30,06,26,8.00
2010,09,30,06,27,8.00
2010,09,30,06,28,8.10
2010,09,30,06,29,8.30
2010,09,30,06,30,8.60
2010,09,30,06,31,8.80
2010,09,30,06,32,8.90
2010,09,30,06,33,8.90
2010,09,30,06,34,9.00
2010,09,30,06,35,9.00
2010,09,30,06,36,8.90
2010,09,30,06,37,8.80
2010,09,30,06,38,8.70
2010,09,30,06,39,8.70
2010,09,30,06,40,8.60
2010,09,30,06,41,8.60
2010,09,30,06,42,8.50
2010,09,30,06,43,8.50
2010,09,30,06,44,8.40
2010,09,30,06,45,8.40
2010,09,30,06,46,8.30
2010,09,30,06,47,8.30
2010,09,30,06,48,8.30
2010,09,30,06,49,8.30
2010,09,30,06,50,8.30
2010,09,30,06,51,8.30
2010,09,30,06,52,8.30
2010,09,30,06,53,8.30
2010,09,30,06,54,8.30
2010,09,30,06,55,8.40
2010,09,30,06,56,8.40
2010,09,30,06,57,8.40
2010,09,30,06,58,8.40
2010,09,30,06,59,8.50
2010,09,30,07,00,8.50
2010,09,30,07,01,8.40
2010,09,30,07,02,8.30
2010,09,30,07,03,8.30
2010,09,30,07,04,8.20
2010,09,30,07,05,8.10
2010,09,30,07,06,8.10
2010,09,30,07,07,8.00
2010,09,30,07,08,8.00
2010,09,30,07,09,7.90
2010,09,30,07,10,7.90
2010,09,30,07,11,7.80
2010,09,30,07,12,7.80
2010,09,30,07,13,7.80
2010,09,30,07,14,7.80
2010,09,30,07,15,7.70
2010,09,30,07,16,7.70
2010,09,30,07,17,7.80
2010,09,30,07,18,8.00
2010,09,30,07,19,8.20
2010,09,30,07,20,8.30
2010,09,30,07,21,8.40
2010,09,30,07,22,8.50
2010,09,30,07,23,8.70
2010,09,30,07,24,8.70
2010,09,30,07,25,8.80
2010,09,30,07,26,8.80
2010,09,30,07,27,8.80
2010,09,30,07,28,8.80
2010,09,30,07,29,8.80
2010,09,30,07,30,8.80
2010,09,30,07,31,8.90
2010,09,30,07,32,9.00
2010,09,30,07,33,9.00
2010,09,30,07,34,9.10
2010,09,30,07,35,9.20
2010,09,30,07,36,9.30
2010,09,30,07,37,9.40
2010,09,30,07,38,9.50
2010,09,30,07,39,9.60
2010,09,30,07,40,9.70
2010,09,30,07,41,9.70
2010,09,30,07,42,9.70
2010,09,30,07,43,9.70
2010,09,30,07,44,9.70
2010,09,30,07,45,9.60
2010,09,30,07,46,9.60
2010,09,30,07,47,9.60
2010,09,30,07,48,9.50
2010,09,30,07,49,9.50
2010,09,30,07,50,9.50
2010,09,30,07,51,9.50
2010,09,30,07,52,9.50
2010,09,30,07,53,9.50
2010,09,30,07,54,9.40
2010,09,30,07,55,9.40
2010,09,30,07,56,9.30
2010,09,30,07,57,9.20
2010,09,30,07,58,9.20
2010,09,30,07,59,9.20
2010,09,30,08,00,9.10
2010,09,30,08,01,9.10
2010,09,30,08,02,9.10
2010,09,30,08,03,9.20
2010,09,30,08,04,9.20
2010,09,30,08,05,9.30
2010,09,30,08,06,9.40
2010,09,30,08,07,9.50
2010,09,30,08,08,9.60
2010,09,30,08,09,9.70
2010,09,30,08,10,9.70
2010,09,30,08,11,9.70
2010,09,30,08,12,9.80
2010,09,30,08,13,9.90
2010,09,30,08,14,10.00
2010,09,30,08,15,10.10
2010,09,30,08,16,10.10
2010,09,30,08,17,10.20
2010,09,30,08,18,10.30
2010,09,30,08,19,10.40
2010,09,30,08,20,10.40
2010,09,30,08,21,10.50
2010,09,30,08,22,10.60
2010,09,30,08,23,10.60
2010,09,30,08,24,10.70
2010,09,30,08,25,10.80
2010,09,30,08,26,10.90
2010,09,30,08,27,10.90
2010,09,30,08,28,10.90
2010,09,30,08,29,10.90
2010,09,30,08,30,11.10
2010,09,30,08,31,11.10
2010,09,30,08,32,11.10
2010,09,30,08,33,11.10
2010,09,30,08,34,11.20
2010,09,30,08,35,11.20
2010,09,30,08,36,11.30
2010,09,30,08,37,11.30
2010,09,30,08,38,11.30
2010,09,30,08,39,11.40
2010,09,30,08,40,11.40
2010,09,30,08,41,11.40
2010,09,30,08,42,11.60
2010,09,30,08,43,11.60
2010,09,30,08,44,11.60
2010,09,30,08,45,11.70
2010,09,30,08,46,11.70
2010,09,30,08,47,11.80
2010,09,30,08,48,11.80
2010,09,30,08,49,11.90
2010,09,30,08,50,11.90
2010,09,30,08,51,12.00
2010,09,30,08,52,12.00
2010,09,30,08,53,12.10
2010,09,30,08,54,12.10
2010,09,30,08,55,12.20
2010,09,30,08,56,12.30
2010,09,30,08,57,12.30
2010,09,30,08,58,12.30
2010,09,30,08,59,12.40
2010,09,30,09,00,12.50
2010,09,30,09,01,12.50
2010,09,30,09,02,12.60
2010,09,30,09,03,12.60
2010,09,30,09,04,12.60
2010,09,30,09,05,12.70
2010,09,30,09,06,12.70
2010,09,30,09,07,12.70
2010,09,30,09,08,12.80
2010,09,30,09,09,12.80
2010,09,30,09,10,12.80
2010,09,30,09,11,12.80
2010,09,30,09,12,12.80
2010,09,30,09,13,12.80
2010,09,30,09,14,12.80
2010,09,30,09,15,12.90
2010,09,30,09,16,12.90
2010,09,30,09,17,13.00
2010,09,30,09,18,13.00
2010,09,30,09,19,13.00
2010,09,30,09,20,13.00
2010,09,30,09,21,13.10
2010,09,30,09,22,13.10
2010,09,30,09,23,13.20
2010,09,30,09,24,13.30
2010,09,30,09,25,13.30
2010,09,30,09,26,13.30
2010,09,30,09,27,13.30
2010,09,30,09,28,13.30
2010,09,30,09,29,13.30
2010,09,30,09,30,13.30
2010,09,30,09,31,13.30
2010,09,30,09,32,13.40
2010,09,30,09,33,13.40
2010,09,30,09,34,13.50
2010,09,30,09,35,13.60
2010,09,30,09,36,13.60
2010,09,30,09,37,13.70
2010,09,30,09,38,13.70
2010,09,30,09,39,13.70
2010,09,30,09,40,13.70
2010,09,30,09,41,13.70
2010,09,30,09,42,13.70
2010,09,30,09,43,13.70
2010,09,30,09,44,13.80
2010,09,30,09,45,13.80
2010,09,30,09,46,13.90
2010,09,30,09,47,14.00
2010,09,30,09,48,14.00
2010,09,30,09,49,14.10
2010,09,30,09,50,14.10
2010,09,30,09,51,14.10
2010,09,30,09,52,14.20
2010,09,30,09,53,14.20
2010,09,30,09,54,14.20
2010,09,30,09,55,14.20
2010,09,30,09,56,14.20
2010,09,30,09,57,14.20
2010,09,30,09,58,14.20
2010,09,30,09,59,14.20
2010,09,30,10,00,14.30
2010,09,30,10,01,14.30
2010,09,30,10,02,14.40
2010,09,30,10,03,14.40
2010,09,30,10,04,14.50
2010,09,30,10,05,14.50
2010,09,30,10,06,14.50
2010,09,30,10,07,14.60
2010,09,30,10,08,14.60
2010,09,30,10,09,14.60
2010,09,30,10,10,14.70
2010,09,30,10,11,14.70
2010,09,30,10,12,14.80
2010,09,30,10,13,14.80
2010,09,30,10,14,14.90
2010,09,30,10,15,15.00
2010,09,30,10,16,15.00
2010,09,30,10,17,15.00
2010,09,30,10,18,15.10
2010,09,30,10,19,15.10
2010,09,30,10,20,15.10
2010,09,30,10,21,15.20
2010,09,30,10,22,15.20
2010,09,30,10,23,15.30
2010,09,30,10,24,15.30
2010,09,30,10,25,15.30
2010,09,30,10,26,15.30
2010,09,30,10,27,15.30
2010,09,30,10,28,15.30
2010,09,30,10,29,15.30
2010,09,30,10,30,15.30
2010,09,30,10,31,15.30
2010,09,30,10,32,15.40
2010,09,30,10,33,15.50
2010,09,30,10,34,15.50
2010,09,30,10,35,15.60
2010,09,30,10,36,15.60
2010,09,30,10,37,15.70
2010,09,30,10,38,15.80
2010,09,30,10,39,15.80
2010,09,30,10,40,15.80
2010,09,30,10,41,15.90
2010,09,30,10,42,15.90
2010,09,30,10,43,15.90
2010,09,30,10,44,16.00
2010,09,30,10,45,16.10
2010,09,30,10,46,16.10
2010,09,30,10,47,16.10
2010,09,30,10,48,16.10
2010,09,30,10,49,16.10
2010,09,30,10,50,16.10
2010,09,30,10,51,16.10
2010,09,30,10,52,16.20
2010,09,30,10,53,16.20
2010,09,30,10,54,16.20
2010,09,30,10,55,16.20
2010,09,30,10,56,16.20
2010,09,30,10,57,16.20
2010,09,30,10,58,16.30
2010,09,30,10,59,16.30
2010,09,30,11,00,16.40
2010,09,30,11,01,16.40
2010,09,30,11,02,16.40
2010,09,30,11,03,16.40
2010,09,30,11,04,16.30
2010,09,30,11,05,16.30
2010,09,30,11,06,16.40
2010,09,30,11,07,16.40
2010,09,30,11,08,16.40
2010,09,30,11,09,16.50
2010,09,30,11,10,16.60
2010,09,30,11,11,16.70
2010,09,30,11,12,16.70
2010,09,30,11,13,16.60
2010,09,30,11,14,16.70
2010,09,30,11,15,16.70
2010,09,30,11,16,16.70
2010,09,30,11,17,16.70
2010,09,30,11,18,16.80
2010,09,30,11,19,16.90
2010,09,30,11,20,17.10
2010,09,30,11,21,17.20
2010,09,30,11,22,17.30
2010,09,30,11,23,17.30
2010,09,30,11,24,17.50
2010,09,30,11,25,17.60
2010,09,30,11,26,17.70
2010,09,30,11,27,17.80
2010,09,30,11,28,17.80
2010,09,30,11,29,17.80
2010,09,30,11,30,17.90
2010,09,30,11,31,17.90
2010,09,30,11,32,17.90
2010,09,30,11,33,18.00
2010,09,30,11,34,18.10
2010,09,30,11,35,18.10
2010,09,30,11,36,18.10
2010,09,30,11,37,18.20
2010,09,30,11,38,18.20
2010,09,30,11,39,18.20
2010,09,30,11,40,18.20
2010,09,30,11,41,18.40
2010,09,30,11,42,18.40
2010,09,30,11,43,18.50
2010,09,30,11,44,18.60
2010,09,30,11,45,18.70
2010,09,30,11,46,18.80
2010,09,30,11,47,18.80
2010,09,30,11,48,18.90
2010,09,30,11,49,18.90
2010,09,30,11,50,18.80
2010,09,30,11,51,18.80
2010,09,30,11,52,18.80
2010,09,30,11,53,18.80
2010,09,30,11,54,18.90
2010,09,30,11,55,18.90
2010,09,30,11,56,18.90
2010,09,30,11,57,18.90
2010,09,30,11,58,18.90
2010,09,30,11,59,18.90
2010,09,30,12,00,18.90
2010,09,30,12,01,19.00
2010,09,30,12,02,19.10
2010,09,30,12,03,19.30
2010,09,30,12,04,19.40
2010,09,30,12,05,19.50
2010,09,30,12,06,19.60
2010,09,30,12,07,19.60
2010,09,30,12,08,19.70
2010,09,30,12,09,19.70
2010,09,30,12,10,19.60
2010,09,30,12,11,19.60
2010,09,30,12,12,19.60
2010,09,30,12,13,19.50
2010,09,30,12,14,19.50
2010,09,30,12,15,19.50
2010,09,30,12,16,19.60
2010,09,30,12,17,19.70
2010,09,30,12,18,19.80
2010,09,30,12,19,19.80
2010,09,30,12,20,19.80
2010,09,30,12,21,19.70
2010,09,30,12,22,19.60
2010,09,30,12,23,19.60
2010,09,30,12,24,19.50
2010,09,30,12,25,19.60
2010,09,30,12,26,19.60
2010,09,30,12,27,19.70
2010,09,30,12,28,19.70
2010,09,30,12,29,19.80
2010,09,30,12,30,19.90
2010,09,30,12,31,20.10
2010,09,30,12,32,20.20
2010,09,30,12,33,20.40
2010,09,30,12,34,20.50
2010,09,30,12,35,20.60
2010,09,30,12,36,20.70
2010,09,30,12,37,20.80
2010,09,30,12,38,20.80
2010,09,30,12,39,20.90
2010,09,30,12,40,21.00
2010,09,30,12,41,20.90
2010,09,30,12,42,20.80
2010,09,30,12,43,20.70
2010,09,30,12,44,20.50
2010,09,30,12,45,20.40
2010,09,30,12,46,20.40
2010,09,30,12,47,20.40
2010,09,30,12,48,20.50
2010,09,30,12,49,20.60
2010,09,30,12,50,20.70
2010,09,30,12,51,20.70
2010,09,30,12,52,20.70
2010,09,30,12,53,20.80
2010,09,30,12,54,20.90
2010,09,30,12,55,21.00
2010,09,30,12,56,21.10
2010,09,30,12,57,21.10
2010,09,30,12,58,21.20
2010,09,30,12,59,21.20
2010,09,30,13,00,21.30
2010,09,30,13,01,21.30
2010,09,30,13,02,21.30
2010,09,30,13,03,21.30
2010,09,30,13,04,21.30
2010,09,30,13,05,21.30
2010,09,30,13,06,21.40
2010,09,30,13,07,21.50
2010,09,30,13,08,21.60
2010,09,30,13,09,21.50
2010,09,30,13,10,21.40
2010,09,30,13,11,21.50
2010,09,30,13,12,21.60
2010,09,30,13,13,21.60
2010,09,30,13,14,21.60
2010,09,30,13,15,21.60
2010,09,30,13,16,21.60
2010,09,30,13,17,21.60
2010,09,30,13,18,21.60
2010,09,30,13,19,21.60
2010,09,30,13,20,21.60
2010,09,30,13,21,21.70
2010,09,30,13,22,21.80
2010,09,30,13,23,21.80
2010,09,30,13,24,21.80
2010,09,30,13,25,21.80
2010,09,30,13,26,21.80
2010,09,30,13,27,21.70
2010,09,30,13,28,21.70
2010,09,30,13,29,21.70
2010,09,30,13,30,21.80
2010,09,30,13,31,21.80
2010,09,30,13,32,21.80
2010,09,30,13,33,21.90
2010,09,30,13,34,21.90
2010,09,30,13,35,21.90
2010,09,30,13,36,21.90
2010,09,30,13,37,21.80
2010,09,30,13,38,21.80
2010,09,30,13,39,21.80
2010,09,30,13,40,21.90
2010,09,30,13,41,21.90
2010,09,30,13,42,21.90
2010,09,30,13,43,21.90
2010,09,30,13,44,21.80
2010,09,30,13,45,21.70
2010,09,30,13,46,21.60
2010,09,30,13,47,21.60
2010,09,30,13,48,21.60
2010,09,30,13,49,21.70
2010,09,30,13,50,21.80
2010,09,30,13,51,21.90
2010,09,30,13,52,22.00
2010,09,30,13,53,22.00
2010,09,30,13,54,22.00
2010,09,30,13,55,22.00
2010,09,30,13,56,22.00
2010,09,30,13,57,22.00
2010,09,30,13,58,21.90
2010,09,30,13,59,22.00
2010,09,30,14,00,22.00
2010,09,30,14,01,22.10
2010,09,30,14,02,22.10
2010,09,30,14,03,22.10
2010,09,30,14,04,22.20
2010,09,30,14,05,22.20
2010,09,30,14,06,22.20
2010,09,30,14,07,22.20
2010,09,30,14,08,22.20
2010,09,30,14,09,22.20
2010,09,30,14,10,22.20
2010,09,30,14,11,22.30
2010,09,30,14,12,22.30
2010,09,30,14,13,22.30
2010,09,30,14,14,22.30
2010,09,30,14,15,22.30
2010,09,30,14,16,22.40
2010,09,30,14,17,22.40
2010,09,30,14,18,22.40
2010,09,30,14,19,22.30
2010,09,30,14,20,22.20
2010,09,30,14,21,22.30
2010,09,30,14,22,22.30
2010,09,30,14,23,22.40
2010,09,30,14,24,22.50
2010,09,30,14,25,22.40
2010,09,30,14,26,22.40
2010,09,30,14,27,22.30
2010,09,30,14,28,22.30
2010,09,30,14,29,22.20
2010,09,30,14,30,22.10
2010,09,30,14,31,22.10
2010,09,30,14,32,22.20
2010,09,30,14,33,22.20
2010,09,30,14,34,22.20
2010,09,30,14,35,22.30
2010,09,30,14,36,22.30
2010,09,30,14,37,22.30
2010,09,30,14,38,22.40
2010,09,30,14,39,22.40
2010,09,30,14,40,22.40
2010,09,30,14,41,22.40
2010,09,30,14,42,22.40
2010,09,30,14,43,22.40
2010,09,30,14,44,22.20
2010,09,30,14,45,22.10
2010,09,30,14,46,21.80
2010,09,30,14,47,21.60
2010,09,30,14,48,21.50
2010,09,30,14,49,21.40
2010,09,30,14,50,21.30
2010,09,30,14,51,21.30
2010,09,30,14,52,21.30
2010,09,30,14,53,21.30
2010,09,30,14,54,21.30
2010,09,30,14,55,21.30
2010,09,30,14,56,21.30
2010,09,30,14,57,21.30
2010,09,30,14,58,21.30
2010,09,30,14,59,21.30
2010,09,30,15,00,21.30
2010,09,30,15,01,21.30
2010,09,30,15,02,21.30
2010,09,30,15,03,21.30
2010,09,30,15,04,21.30
2010,09,30,15,05,21.30
2010,09,30,15,06,21.30
2010,09,30,15,07,21.30
2010,09,30,15,08,21.30
2010,09,30,15,09,21.30
2010,09,30,15,10,21.40
2010,09,30,15,11,21.40
2010,09,30,15,12,21.60
2010,09,30,15,13,21.60
2010,09,30,15,14,21.60
2010,09,30,15,15,21.60
2010,09,30,15,16,21.60
2010,09,30,15,17,21.50
2010,09,30,15,18,21.40
2010,09,30,15,19,21.40
2010,09,30,15,20,21.30
2010,09,30,15,21,21.40
2010,09,30,15,22,21.40
2010,09,30,15,23,21.30
2010,09,30,15,24,21.30
2010,09,30,15,25,21.30
2010,09,30,15,26,21.30
2010,09,30,15,27,21.30
2010,09,30,15,28,21.30
2010,09,30,15,29,21.30
2010,09,30,15,30,21.40
2010,09,30,15,31,21.40
2010,09,30,15,32,21.40
2010,09,30,15,33,21.40
2010,09,30,15,34,21.40
2010,09,30,15,35,21.40
2010,09,30,15,36,21.30
2010,09,30,15,37,21.30
2010,09,30,15,38,21.30
2010,09,30,15,39,21.30
2010,09,30,15,40,21.30
2010,09,30,15,41,21.40
2010,09,30,15,42,21.40
2010,09,30,15,43,21.30
2010,09,30,15,44,21.30
2010,09,30,15,45,21.30
2010,09,30,15,46,21.20
2010,09,30,15,47,21.20
2010,09,30,15,48,21.20
2010,09,30,15,49,21.10
2010,09,30,15,50,21.10
2010,09,30,15,51,21.10
2010,09,30,15,52,21.10
2010,09,30,15,53,21.10
2010,09,30,15,54,21.20
2010,09,30,15,55,21.30
2010,09,30,15,56,21.20
2010,09,30,15,57,21.10
2010,09,30,15,58,21.10
2010,09,30,15,59,21.10
2010,09,30,16,00,21.10
2010,09,30,16,01,21.10
2010,09,30,16,02,21.10
2010,09,30,16,03,21.10
2010,09,30,16,04,21.00
2010,09,30,16,05,21.00
2010,09,30,16,06,21.00
2010,09,30,16,07,21.10
2010,09,30,16,08,21.10
2010,09,30,16,09,21.10
2010,09,30,16,10,21.10
2010,09,30,16,11,21.10
2010,09,30,16,12,21.10
2010,09,30,16,13,21.20
2010,09,30,16,14,21.10
2010,09,30,16,15,21.00
2010,09,30,16,16,21.00
2010,09,30,16,17,21.00
2010,09,30,16,18,20.90
2010,09,30,16,19,20.90
2010,09,30,16,20,20.90
2010,09,30,16,21,20.90
2010,09,30,16,22,20.90
2010,09,30,16,23,20.80
2010,09,30,16,24,20.70
2010,09,30,16,25,20.70
2010,09,30,16,26,20.60
2010,09,30,16,27,20.60
2010,09,30,16,28,20.50
2010,09,30,16,29,20.50
2010,09,30,16,30,20.60
2010,09,30,16,31,20.60
2010,09,30,16,32,20.50
2010,09,30,16,33,20.50
2010,09,30,16,34,20.40
2010,09,30,16,35,20.40
2010,09,30,16,36,20.50
2010,09,30,16,37,20.50
2010,09,30,16,38,20.60
2010,09,30,16,39,20.60
2010,09,30,16,40,20.50
2010,09,30,16,41,20.50
2010,09,30,16,42,20.60
2010,09,30,16,43,20.60
2010,09,30,16,44,20.70
2010,09,30,16,45,20.70
2010,09,30,16,46,20.70
2010,09,30,16,47,20.70
2010,09,30,16,48,20.70
2010,09,30,16,49,20.70
2010,09,30,16,50,20.70
2010,09,30,16,51,20.80
2010,09,30,16,52,20.70
2010,09,30,16,53,20.60
2010,09,30,16,54,20.50
2010,09,30,16,55,20.40
2010,09,30,16,56,20.40
2010,09,30,16,57,20.30
2010,09,30,16,58,20.20
2010,09,30,16,59,20.20
2010,09,30,17,00,20.20
2010,09,30,17,01,20.20
2010,09,30,17,02,20.30
2010,09,30,17,03,20.30
2010,09,30,17,04,20.30
2010,09,30,17,05,20.30
2010,09,30,17,06,20.20
2010,09,30,17,07,20.20
2010,09,30,17,08,20.20
2010,09,30,17,09,20.10
2010,09,30,17,10,20.10
2010,09,30,17,11,20.10
2010,09,30,17,12,20.10
2010,09,30,17,13,20.10
2010,09,30,17,14,20.20
2010,09,30,17,15,20.20
2010,09,30,17,16,20.20
2010,09,30,17,17,20.20
2010,09,30,17,18,20.20
2010,09,30,17,19,20.10
2010,09,30,17,20,20.10
2010,09,30,17,21,20.10
2010,09,30,17,22,20.10
2010,09,30,17,23,19.90
2010,09,30,17,24,19.90
2010,09,30,17,25,19.90
2010,09,30,17,26,19.90
2010,09,30,17,27,19.90
2010,09,30,17,28,20.00
2010,09,30,17,29,20.10
2010,09,30,17,30,20.20
2010,09,30,17,31,20.20
2010,09,30,17,32,20.30
2010,09,30,17,33,20.40
2010,09,30,17,34,20.40
2010,09,30,17,35,20.50
2010,09,30,17,36,20.50
2010,09,30,17,37,20.50